This is the latest recevied weather packets stored in our database for station/object DL9GRB-13. If no packets are shown the sender has not sent any weather packets the latest 10 day(s).
| Time | Temp. | Humidity | Pressure | Rain* | Wind** | Luminosity | Snow |
|---|---|---|---|---|---|---|---|
| 1777563126 | 18.33° C | 35% | 1029.2 hPa | 0 mm | - | 271 W/m² | - |
| 1777562766 | 17.78° C | 35% | 1029.2 hPa | 0 mm | - | 296 W/m² | - |
| 1777562586 | 17.78° C | 35% | 1029.2 hPa | 0 mm | - | 304 W/m² | - |
| 1777562226 | 18.33° C | 35% | 1029.1 hPa | 0 mm | - | 322 W/m² | - |
| 1777562046 | 17.78° C | 35% | 1029.4 hPa | 0 mm | - | 332 W/m² | - |
| 1777561866 | 18.33° C | 35% | 1029.4 hPa | 0 mm | - | 343 W/m² | - |
| 1777561506 | 18.33° C | 35% | 1029.5 hPa | 0 mm | - | 357 W/m² | - |
| 1777560966 | 18.33° C | 35% | 1029.3 hPa | 0 mm | - | 383 W/m² | - |
| 1777559706 | 18.33° C | 34% | 1029.8 hPa | 0 mm | - | 440 W/m² | - |
| 1777559166 | 18.33° C | 34% | 1029.9 hPa | 0 mm | - | 476 W/m² | - |
| 1777558626 | 18.33° C | 35% | 1029.8 hPa | 0 mm | - | 519 W/m² | - |
| 1777558266 | 17.78° C | 35% | 1029.8 hPa | 0 mm | - | 532 W/m² | - |
| 1777557906 | 17.78° C | 34% | 1030 hPa | 0 mm | - | 549 W/m² | - |
| 1777557546 | 17.78° C | 35% | 1029.9 hPa | 0 mm | - | 543 W/m² | - |
| 1777557366 | 17.78° C | 34% | 1030.1 hPa | 0 mm | - | 528 W/m² | - |
| 1777556646 | 17.78° C | 35% | 1030.2 hPa | 0 mm | - | 589 W/m² | - |
| 1777556466 | 17.78° C | 35% | 1030 hPa | 0 mm | - | 583 W/m² | - |
| 1777556106 | 17.78° C | 36% | 1030 hPa | 0 mm | - | 517 W/m² | - |
| 1777555926 | 17.78° C | 36% | 1030.3 hPa | 0 mm | - | 608 W/m² | - |
| 1777555566 | 17.78° C | 36% | 1030.2 hPa | 0 mm | - | 618 W/m² | - |
| 1777555206 | 17.78° C | 37% | 1030.3 hPa | 0 mm | - | 630 W/m² | - |
| 1777554846 | 17.78° C | 37% | 1030.5 hPa | 0 mm | - | 640 W/m² | - |
| 1777554666 | 17.78° C | 39% | 1030.6 hPa | 0 mm | - | 651 W/m² | - |
| 1777554306 | 17.22° C | 39% | 1030.6 hPa | 0 mm | - | 663 W/m² | - |
| 1777554126 | 17.22° C | 39% | 1030.7 hPa | 0 mm | - | 667 W/m² | - |
* Rain latest hour (hover to see other rain measurements)
** Current wind speed in m/s (hover to see current wind gust speed)